EZY128 EGKK-EGLL

Flight info

Callsign EZY128
Flight time 0h 17m
Altitude 9000
Route ACORN DCT BIG
Aircraft A333/H-SDE3GHIJ2J3J5M1RVWXY/LB2D1

Departure

Time 2026-05-07 14:50
Airport London Gatwick Airport (EGKK)

Arrival

Time 2026-05-07 15:07
Airport London Heathrow Airport (EGLL)
Time Latitude Longitude Altitude Speed Heading
2026-05-07 14:38 51.15480 -0.16956 213 ft 0 kts 348°
2026-05-07 14:40 51.15472 -0.16953 214 ft 3 kts 348°
2026-05-07 14:41 51.15458 -0.16949 210 ft 3 kts 341°
2026-05-07 14:41 51.15446 -0.16928 217 ft 2 kts 261°
2026-05-07 14:41 51.15446 -0.16926 217 ft 0 kts 261°
2026-05-07 14:43 51.15445 -0.16931 217 ft 3 kts 251°
2026-05-07 14:43 51.15420 -0.17048 206 ft 18 kts 257°
2026-05-07 14:44 51.15377 -0.17256 211 ft 20 kts 252°
2026-05-07 14:44 51.15313 -0.17397 210 ft 13 kts 240°
2026-05-07 14:44 51.15289 -0.17540 209 ft 16 kts 256°
2026-05-07 14:44 51.15264 -0.17732 212 ft 20 kts 257°
2026-05-07 14:45 51.15231 -0.17965 213 ft 23 kts 257°
2026-05-07 14:45 51.15192 -0.18243 212 ft 28 kts 258°
2026-05-07 14:45 51.15153 -0.18560 212 ft 30 kts 260°
2026-05-07 14:45 51.15109 -0.18883 210 ft 31 kts 258°
2026-05-07 14:46 51.15064 -0.19219 208 ft 31 kts 257°
2026-05-07 14:46 51.15016 -0.19555 213 ft 31 kts 258°
2026-05-07 14:46 51.14970 -0.19895 215 ft 31 kts 257°
2026-05-07 14:46 51.14924 -0.20235 212 ft 31 kts 258°
2026-05-07 14:47 51.14878 -0.20570 211 ft 31 kts 258°
2026-05-07 14:47 51.14835 -0.20898 208 ft 30 kts 257°
2026-05-07 14:47 51.14788 -0.21167 211 ft 19 kts 254°
2026-05-07 14:47 51.14755 -0.21371 208 ft 16 kts 238°
2026-05-07 14:48 51.14711 -0.21400 209 ft 8 kts 176°
2026-05-07 14:48 51.14666 -0.21365 206 ft 7 kts 140°
2026-05-07 14:48 51.14630 -0.21329 207 ft 5 kts 163°
2026-05-07 14:48 51.14615 -0.21324 211 ft 2 kts 168°
2026-05-07 14:49 51.14532 -0.21242 211 ft 25 kts 120°
2026-05-07 14:49 51.14542 -0.20978 218 ft 49 kts 76°
2026-05-07 14:49 51.14659 -0.20131 217 ft 111 kts 77°
2026-05-07 14:49 51.14859 -0.18687 286 ft 150 kts 81°
2026-05-07 14:50 51.15082 -0.17138 1063 ft 136 kts 80°
2026-05-07 14:50 51.15312 -0.15662 1743 ft 131 kts 79°
2026-05-07 14:50 51.15520 -0.14282 2319 ft 129 kts 81°
2026-05-07 14:50 51.15809 -0.12562 2762 ft 162 kts 74°
2026-05-07 14:51 51.16117 -0.11014 3448 ft 159 kts 72°
2026-05-07 14:51 51.16466 -0.09212 4269 ft 166 kts 76°
2026-05-07 14:51 51.16663 -0.07550 4750 ft 183 kts 82°
2026-05-07 14:51 51.16829 -0.05751 5056 ft 206 kts 81°
2026-05-07 14:52 51.16933 -0.04647 5230 ft 220 kts 83°
2026-05-07 14:52 51.17634 0.00185 5979 ft 260 kts 64°
2026-05-07 14:52 51.18365 0.02435 6541 ft 269 kts 60°
2026-05-07 14:52 51.19336 0.04988 6885 ft 273 kts 57°
2026-05-07 14:53 51.20431 0.07609 6951 ft 275 kts 56°
2026-05-07 14:53 51.21526 0.10142 6945 ft 276 kts 55°
2026-05-07 14:53 51.22704 0.12284 6930 ft 276 kts 41°
2026-05-07 14:53 51.24543 0.13986 6929 ft 276 kts 17°
2026-05-07 14:54 51.26437 0.14314 6932 ft 275 kts 352°
2026-05-07 14:54 51.28201 0.13264 6941 ft 274 kts 323°
2026-05-07 14:54 51.29541 0.11115 6958 ft 274 kts 309°
2026-05-07 14:54 51.30706 0.08699 6972 ft 275 kts 306°
2026-05-07 14:55 51.31846 0.06230 6983 ft 275 kts 306°
2026-05-07 14:55 51.32827 0.03619 7072 ft 274 kts 291°
2026-05-07 14:55 51.33272 0.00653 7077 ft 274 kts 277°
2026-05-07 14:55 51.33465 -0.02363 7042 ft 274 kts 274°
2026-05-07 14:56 51.33618 -0.05395 7048 ft 273 kts 274°
2026-05-07 14:56 51.33770 -0.08423 7041 ft 273 kts 274°
2026-05-07 14:56 51.33924 -0.11406 7042 ft 272 kts 274°
2026-05-07 14:56 51.34085 -0.14465 7043 ft 272 kts 274°
2026-05-07 14:57 51.34246 -0.17476 7040 ft 272 kts 274°
2026-05-07 14:57 51.34406 -0.20490 7043 ft 272 kts 274°
2026-05-07 14:57 51.34567 -0.23503 7044 ft 272 kts 274°
2026-05-07 14:57 51.34729 -0.26532 7045 ft 272 kts 274°
2026-05-07 14:58 51.34825 -0.28353 7048 ft 272 kts 274°
2026-05-07 14:58 51.35058 -0.32752 7050 ft 272 kts 274°
2026-05-07 14:58 51.35173 -0.34937 7048 ft 272 kts 274°
2026-05-07 14:58 51.35214 -0.35704 7050 ft 272 kts 274°
2026-05-07 14:59 51.35505 -0.41280 7049 ft 272 kts 274°
2026-05-07 14:59 51.35678 -0.44609 7048 ft 272 kts 274°
2026-05-07 14:59 51.35820 -0.47368 7049 ft 272 kts 274°
2026-05-07 14:59 51.35962 -0.50133 7050 ft 272 kts 274°
2026-05-07 15:00 51.36119 -0.53185 7043 ft 272 kts 274°
2026-05-07 15:00 51.36272 -0.56201 7045 ft 272 kts 274°
2026-05-07 15:00 51.36426 -0.59234 7050 ft 272 kts 274°
2026-05-07 15:00 51.36577 -0.62243 7052 ft 273 kts 274°
2026-05-07 15:01 51.36732 -0.65328 6924 ft 273 kts 274°
2026-05-07 15:01 51.36829 -0.67276 6750 ft 269 kts 274°
2026-05-07 15:01 51.37034 -0.71408 6279 ft 266 kts 274°
2026-05-07 15:01 51.37260 -0.74180 5931 ft 267 kts 283°
2026-05-07 15:02 51.38233 -0.77197 5115 ft 280 kts 314°
2026-05-07 15:02 51.39799 -0.78802 4895 ft 273 kts 340°
2026-05-07 15:02 51.41661 -0.79275 4633 ft 266 kts 357°
2026-05-07 15:02 51.43311 -0.79206 4160 ft 264 kts
2026-05-07 15:03 51.45306 -0.78084 3586 ft 261 kts 31°
2026-05-07 15:03 51.46668 -0.76286 3173 ft 250 kts 53°
2026-05-07 15:03 51.47431 -0.73867 2755 ft 238 kts 73°
2026-05-07 15:03 51.47564 -0.73036 2635 ft 233 kts 81°
2026-05-07 15:04 51.47609 -0.69066 2469 ft 197 kts 92°
2026-05-07 15:04 51.47602 -0.66910 2371 ft 183 kts 90°
2026-05-07 15:04 51.47624 -0.64923 2143 ft 174 kts 90°
2026-05-07 15:04 51.47637 -0.63020 1914 ft 171 kts 90°
2026-05-07 15:05 51.47649 -0.61072 1700 ft 169 kts 90°
2026-05-07 15:05 51.47657 -0.59808 1538 ft 164 kts 90°
2026-05-07 15:05 51.47669 -0.58030 1299 ft 154 kts 90°
2026-05-07 15:05 51.47680 -0.56357 1083 ft 145 kts 91°
2026-05-07 15:06 51.47690 -0.54802 892 ft 136 kts 90°
2026-05-07 15:06 51.47700 -0.53316 694 ft 133 kts 90°
2026-05-07 15:06 51.47691 -0.51845 483 ft 130 kts 91°
2026-05-07 15:06 51.47637 -0.50024 216 ft 130 kts 93°
2026-05-07 15:07 51.47683 -0.48650 141 ft 121 kts 78°
2026-05-07 15:07 51.47750 -0.47369 91 ft 102 kts 86°
2026-05-07 15:07 51.47756 -0.46403 98 ft 72 kts 90°
2026-05-07 15:07 51.47756 -0.45888 93 ft 42 kts 89°
2026-05-07 15:08 51.47756 -0.45666 93 ft 35 kts 93°
2026-05-07 15:08 51.47701 -0.45448 94 ft 9 kts 205°
2026-05-07 15:08 51.47658 -0.45468 91 ft 0 kts 179°
2026-05-07 15:09 51.47609 -0.45475 94 ft 5 kts 215°
2026-05-07 15:09 51.47596 -0.45580 91 ft 17 kts 269°
2026-05-07 15:09 51.47564 -0.45730 92 ft 10 kts 199°
2026-05-07 15:10 51.47528 -0.45788 91 ft 7 kts 247°
2026-05-07 15:10 51.47520 -0.45838 94 ft 8 kts 262°
2026-05-07 15:10 51.47519 -0.45977 93 ft 17 kts 269°
2026-05-07 15:10 51.47513 -0.46180 93 ft 0 kts 264°
2026-05-07 15:11 51.47507 -0.46186 96 ft 2 kts 201°
2026-05-07 15:11 51.47472 -0.46130 96 ft 5 kts 79°
2026-05-07 15:11 51.47503 -0.46136 95 ft 9 kts 317°
2026-05-07 15:11 51.47516 -0.46278 92 ft 16 kts 269°
2026-05-07 15:12 51.47516 -0.46490 95 ft 21 kts 270°